This is the latest recevied weather packets stored in our database for station/object KN6DHD. If no packets are shown the sender has not sent any weather packets the latest 10 day(s).
| Time | Temp. | Humidity | Pressure | Rain* | Wind** | Luminosity | Snow |
|---|---|---|---|---|---|---|---|
| 1777955132 | 12.78° C | 99% | 1016 hPa | 1.78 mm | - | 0 W/m² | - |
| 1777954830 | 12.78° C | 99% | 1016 hPa | 0 mm | - | 0 W/m² | - |
| 1777954526 | 12.78° C | 99% | 1016.1 hPa | 1.27 mm | - | 0 W/m² | - |
| 1777954224 | 12.78° C | 98% | 1015.8 hPa | 0 mm | - | 0 W/m² | - |
| 1777953921 | 12.78° C | 98% | 1015.9 hPa | 1.78 mm | - | 0 W/m² | - |
| 1777953618 | 13.33° C | 98% | 1015.9 hPa | 1.78 mm | - | 0 W/m² | - |
| 1777953314 | 13.33° C | 98% | 1016.1 hPa | 1.27 mm | - | 0 W/m² | - |
| 1777953011 | 13.33° C | 97% | 1015.9 hPa | 4.32 mm | - | 0 W/m² | - |
| 1777952707 | 13.33° C | 96% | 1015.9 hPa | 4.83 mm | - | 0 W/m² | - |
| 1777952404 | 13.33° C | 95% | 1015.9 hPa | 3.56 mm | - | 0 W/m² | - |
| 1777952101 | 13.33° C | 95% | 1015.7 hPa | 3.05 mm | - | 0 W/m² | - |
| 1777951799 | 13.33° C | 94% | 1015.9 hPa | 3.05 mm | - | 0 W/m² | - |
| 1777951496 | 13.89° C | 93% | 1015.7 hPa | 1.78 mm | - | 0 W/m² | - |
| 1777951193 | 13.89° C | 93% | 1015.9 hPa | 0 mm | - | 0 W/m² | - |
| 1777950890 | 13.89° C | 93% | 1015.8 hPa | 0 mm | - | 0 W/m² | - |
| 1777950587 | 13.89° C | 92% | 1015.6 hPa | 0 mm | - | 0 W/m² | - |
| 1777950283 | 13.89° C | 93% | 1015.4 hPa | 0 mm | - | 0 W/m² | - |
| 1777949978 | 13.33° C | 93% | 1015.3 hPa | 0 mm | - | 0 W/m² | - |
| 1777949675 | 13.33° C | 93% | 1015.2 hPa | 0 mm | - | 0 W/m² | - |
| 1777949374 | 13.33° C | 93% | 1015.3 hPa | 0 mm | - | 0 W/m² | - |
| 1777949071 | 13.89° C | 93% | 1015 hPa | 0 mm | - | 0 W/m² | - |
| 1777948768 | 13.89° C | 93% | 1015.1 hPa | 0 mm | - | 0 W/m² | - |
| 1777948465 | 13.33° C | 94% | 1014.9 hPa | 0 mm | - | 0 W/m² | - |
| 1777948162 | 13.33° C | 94% | 1015.1 hPa | 0 mm | - | 1 W/m² | - |
| 1777947861 | 13.33° C | 95% | 1015.1 hPa | 0 mm | - | 2 W/m² | - |
* Rain latest hour (hover to see other rain measurements)
** Current wind speed in m/s (hover to see current wind gust speed)